Home   Weather   Arctic Bay   Past weeks
Flag for Canada

Past Weather in Arctic Bay, Nunavut, Canada — Yesterday and Last 2 Weeks

Now
27 °F

Overcast.


Feels Like: 12 °F
Forecast: 30 / 24 °F
Wind: 22 mph from Northeast

Location: Pond Inlet

Current Time: Oct 20, 2019 at 8:48:11 pm

Latest Report: Oct 20, 2019 at 8:00 pm


Visibility: 9 mi

Pressure: 30.14 "Hg

Humidity: 86%

Dew Point: 23 °F

Location of Arctic BayLocation

Past Weather in Arctic Bay — Graph

°F

Arctic Bay Temperature Yesterday

Maximum temperature yesterday: 23 °F (at 7:00 am)
Minimum temperature yesterday: 14 °F (at 9:00 pm)
Average temperature yesterday: 20 °F

High & Low Weather Summary for the Past Weeks

 TemperatureHumidityPressure
High34 °F (Oct 10, 10:14 am)100% (Oct 5, 7:09 pm)30.17 "Hg (Oct 5, 7:09 pm)
Low9 °F (Oct 16, 7:00 pm)68% (Oct 7, 4:28 am)29.34 "Hg (Oct 5, 10:34 pm)
Average23 °F89%29.81 "Hg
* Reported Oct 5 7:09 pm — Oct 20 7:00 pm, Arctic Bay. Weather by CustomWeather, © 2019

Note: Actual official high and low records may vary slightly from our data, if they occured in-between our weather recording intervals... More about our weather records

Advertising

Arctic Bay Weather History for the Previous 24 Hours

Scroll right to see more
 ConditionsComfort  
Time TempWeatherWind HumidityBarometerVisibility
7:00 pm
Sun, Oct 20
27 °FMostly cloudy.20 mph86%30.15 "Hg9 mi
6:00 pm27 °FOvercast.18 mph80%30.14 "Hg9 mi
5:00 pm27 °FOvercast.15 mph80%30.15 "Hg9 mi
4:00 pm27 °FMostly cloudy.15 mph80%30.15 "Hg9 mi
3:00 pm27 °FPassing clouds.8 mph80%30.16 "Hg9 mi
2:00 pm27 °FPassing clouds.17 mph80%30.15 "Hg9 mi
1:00 pm25 °FSunny.10 mph69%30.16 "Hg9 mi
12:00 pm21 °FSunny.2 mph86%30.16 "Hg9 mi
11:00 am21 °FPassing clouds.3 mph80%30.17 "Hg9 mi
10:00 am21 °FMostly cloudy.No wind80%30.16 "Hg9 mi
9:00 am21 °FOvercast.5 mph80%30.16 "Hg9 mi
8:00 am19 °FOvercast.3 mph86%30.16 "Hg9 mi
7:00 am21 °FMostly cloudy.3 mph80%30.16 "Hg9 mi
6:00 am19 °FOvercast.8 mph79%30.16 "Hg9 mi
5:00 am19 °FOvercast.5 mph86%30.16 "Hg9 mi
4:00 am19 °FPassing clouds.5 mph86%30.17 "Hg9 mi
3:30 am21 °FOvercast.2 mph86%30.16 "Hg9 mi
3:00 am21 °FLight snow. Overcast.5 mph86%30.16 "Hg9 mi
2:46 am21 °FLight snow. Mostly cloudy.5 mph86%30.16 "Hg9 mi
2:00 am21 °FPassing clouds.6 mph80%30.16 "Hg9 mi
1:43 am19 °FPartly cloudy.5 mph86%30.16 "Hg9 mi
1:00 am18 °FPassing clouds.5 mph86%30.16 "Hg9 mi
12:38 am18 °FPassing clouds.3 mph86%30.15 "Hg9 mi
12:14 am19 °FLight snow. Mostly cloudy.3 mph86%30.16 "Hg9 mi
11:00 pm
Sat, Oct 19
18 °FMostly cloudy.10 mph86%30.16 "Hg9 mi
10:00 pm18 °FMostly cloudy.10 mph93%30.16 "Hg9 mi
9:00 pm14 °FClear.13 mph92%30.16 "Hg9 mi
8:00 pm18 °FOvercast.6 mph93%30.15 "Hg9 mi
Weather by CustomWeather, © 2019

See weather overview